TimeEST,TemperatureF,Dew PointF,Humidity,Sea Level PressureIn,VisibilityMPH,Wind Direction,Wind SpeedMPH,Gust SpeedMPH,PrecipitationIn,Events,Conditions,WindDirDegrees,DateUTC
12:48 AM,33.8,30.2,87,29.95,7.0,West,9.2,-,0.00,Rain,Light Rain,270,2013-01-01 05:48:00
12:51 AM,33.1,30.0,89,29.97,7.0,WSW,8.1,-,0.00,Rain,Light Rain,250,2013-01-01 05:51:00
1:51 AM,33.1,25.0,72,29.97,9.0,NW,12.7,18.4,0.00,,Overcast,310,2013-01-01 06:51:00
2:51 AM,32.0,24.1,73,29.99,9.0,WNW,9.2,17.3,N/A,,Overcast,290,2013-01-01 07:51:00
3:51 AM,32.0,24.1,73,29.99,10.0,WNW,10.4,-,N/A,,Overcast,290,2013-01-01 08:51:00
4:28 AM,30.2,21.2,69,29.96,2.0,WNW,10.4,-,0.31,,Overcast,300,2013-01-01 09:28:00
4:36 AM,30.2,21.2,69,29.97,10.0,NW,10.4,-,0.31,,Overcast,310,2013-01-01 09:36:00
4:51 AM,30.9,21.9,69,29.99,10.0,NW,9.2,-,0.31,,Overcast,310,2013-01-01 09:51:00
5:51 AM,30.0,19.9,66,30.00,10.0,WNW,11.5,-,N/A,,Overcast,300,2013-01-01 10:51:00
6:51 AM,30.0,19.9,66,30.02,10.0,NW,5.8,16.1,N/A,,Overcast,320,2013-01-01 11:51:00
7:51 AM,28.9,21.0,72,30.03,10.0,North,9.2,-,N/A,,Overcast,360,2013-01-01 12:51:00
8:51 AM,28.0,19.0,69,30.04,10.0,NNW,9.2,-,N/A,,Overcast,340,2013-01-01 13:51:00
9:51 AM,27.0,19.0,72,30.07,10.0,NNW,6.9,-,N/A,,Overcast,330,2013-01-01 14:51:00
10:51 AM,26.1,18.0,71,30.09,6.0,NNW,8.1,-,0.00,Snow,Light Snow,330,2013-01-01 15:51:00
11:51 AM,27.0,16.0,63,30.06,10.0,WNW,9.2,-,0.00,,Overcast,300,2013-01-01 16:51:00
12:03 PM,26.6,15.8,64,30.04,10.0,WNW,8.1,-,N/A,,Overcast,300,2013-01-01 17:03:00
12:25 PM,26.6,15.8,64,30.01,10.0,WNW,11.5,19.6,N/A,,Overcast,290,2013-01-01 17:25:00
12:51 PM,27.0,16.0,63,30.03,10.0,NNW,9.2,17.3,N/A,,Overcast,340,2013-01-01 17:51:00
1:51 PM,27.0,15.1,61,30.03,10.0,NW,8.1,-,N/A,,Overcast,320,2013-01-01 18:51:00
2:51 PM,27.0,17.1,66,30.03,10.0,WNW,9.2,-,0.00,,Overcast,300,2013-01-01 19:51:00
3:09 PM,26.6,17.6,69,30.00,10.0,NW,9.2,-,N/A,,Overcast,310,2013-01-01 20:09:00
3:40 PM,26.6,17.6,69,30.01,10.0,NW,9.2,-,N/A,,Overcast,310,2013-01-01 20:40:00
3:51 PM,27.0,18.0,69,30.04,10.0,WNW,8.1,-,N/A,,Overcast,300,2013-01-01 20:51:00
4:51 PM,26.1,18.0,71,30.06,10.0,WNW,8.1,-,N/A,,Overcast,290,2013-01-01 21:51:00
5:13 PM,26.6,17.6,69,30.04,8.0,West,6.9,-,0.00,Snow,Light Snow,280,2013-01-01 22:13:00
5:44 PM,26.6,15.8,64,30.04,10.0,West,8.1,-,0.00,,Overcast,270,2013-01-01 22:44:00
5:51 PM,26.1,16.0,66,30.07,10.0,West,8.1,-,0.00,,Overcast,270,2013-01-01 22:51:00
6:51 PM,26.1,17.1,69,30.07,9.0,WNW,4.6,-,0.00,Snow,Light Snow,290,2013-01-01 23:51:00
7:51 PM,26.1,17.1,69,30.07,10.0,Variable,4.6,-,0.00,,Overcast,0,2013-01-02 00:51:00
8:23 PM,24.8,15.8,69,30.03,10.0,SW,3.5,-,0.00,,Overcast,230,2013-01-02 01:23:00
8:51 PM,26.1,16.0,66,30.07,10.0,SW,8.1,-,0.00,,Overcast,220,2013-01-02 01:51:00
9:51 PM,24.1,16.0,71,30.07,10.0,SW,6.9,-,N/A,,Overcast,220,2013-01-02 02:51:00
10:01 PM,24.8,15.8,69,30.04,10.0,SW,8.1,-,N/A,,Overcast,230,2013-01-02 03:01:00
10:51 PM,24.1,14.0,65,30.08,10.0,SW,9.2,-,N/A,,Overcast,220,2013-01-02 03:51:00
11:31 PM,23.0,15.8,74,30.05,10.0,SW,8.1,-,N/A,,Overcast,220,2013-01-02 04:31:00
11:51 PM,23.0,15.1,72,30.08,10.0,SW,9.2,-,N/A,,Overcast,220,2013-01-02 04:51:00